This is the latest recevied weather packets stored in our database for station/object W0WFX-2. If no packets are shown the sender has not sent any weather packets the latest 10 day(s).
| Time | Temp. | Humidity | Pressure | Rain* | Wind** | Luminosity | Snow |
|---|---|---|---|---|---|---|---|
| 1787863964 | 30.56° C | 41% | 1018.3 hPa | 0 mm | - | 579 W/m² | - |
| 1787863662 | 30.56° C | 41% | 1018.5 hPa | 0 mm | - | 590 W/m² | - |
| 1787863361 | 30.56° C | 42% | 1018.7 hPa | 0 mm | - | 597 W/m² | - |
| 1787863058 | 30.56° C | 43% | 1018.7 hPa | 0 mm | - | 607 W/m² | - |
| 1787862758 | 30.56° C | 42% | 1018.6 hPa | 0 mm | - | 624 W/m² | - |
| 1787862457 | 30.56° C | 46% | 1018.8 hPa | 0 mm | - | 644 W/m² | - |
| 1787862153 | 30.56° C | 44% | 1018.7 hPa | 0 mm | - | 643 W/m² | - |
| 1787861848 | 30.56° C | 44% | 1018.8 hPa | 0 mm | - | 653 W/m² | - |
| 1787861546 | 30.56° C | 45% | 1018.8 hPa | 0 mm | - | 665 W/m² | - |
| 1787861241 | 30.56° C | 45% | 1019.1 hPa | 0 mm | - | 670 W/m² | - |
| 1787860941 | 30.56° C | 40% | 1019.2 hPa | 0 mm | - | 678 W/m² | - |
| 1787860635 | 31.11° C | 44% | 1019.1 hPa | 0 mm | - | 683 W/m² | - |
| 1787860330 | 31.11° C | 40% | 1018.8 hPa | 0 mm | - | 697 W/m² | - |
| 1787860025 | 30.56° C | 43% | 1018.9 hPa | 0 mm | - | 709 W/m² | - |
| 1787859721 | 30.56° C | 43% | 1019.3 hPa | 0 mm | - | 639 W/m² | - |
| 1787859421 | 30.56° C | 42% | 1019.2 hPa | 0 mm | - | 770 W/m² | - |
| 1787859115 | 30.56° C | 46% | 1019.2 hPa | 0 mm | - | 745 W/m² | - |
| 1787858812 | 30.56° C | 40% | 1019.3 hPa | 0 mm | - | 744 W/m² | - |
| 1787858508 | 30.56° C | 43% | 1019.4 hPa | 0 mm | - | 747 W/m² | - |
| 1787858207 | 30.56° C | 42% | 1019.4 hPa | 0 mm | - | 729 W/m² | - |
| 1787857903 | 30.56° C | 44% | 1019.4 hPa | 0 mm | - | 766 W/m² | - |
| 1787857599 | 30.56° C | 43% | 1019.3 hPa | 0 mm | - | 764 W/m² | - |
| 1787857293 | 30° C | 44% | 1019.2 hPa | 0 mm | - | 764 W/m² | - |
| 1787856992 | 30° C | 48% | 1019.3 hPa | 0 mm | - | 759 W/m² | - |
| 1787856691 | 30.56° C | 48% | 1019.4 hPa | 0 mm | - | 770 W/m² | - |
* Rain latest hour (hover to see other rain measurements)
** Current wind speed in m/s (hover to see current wind gust speed)